Location: Coll
(42.4728°N, 0.7714°E)
Time: 06:28:55
(UTC+00:00)

COSMO-SKYMED 1 - Pass Details

Date: 23 October 2020
Orbit: 621 x 623 km, 97.9° (Epoch: 23 November)

Event Time Altitude Azimuth Distance (km) Brightness Sun altitude
Rises 05:03:03 0° 163° (SSE) 2,891 6.3 -14.8°
Reaches altitude 10° 05:05:13 10° 163° (SSE) 1,989 5.4 -14.4°
Maximum altitude 05:09:33 82° 77° (ENE) 637 2.7 -13.6°
Drops below altitude 10° 05:13:55 10° 349° (N) 2,004 5.0 -12.8°
Sets 05:16:07 0° 349° (N) 2,915 5.9 -12.4°
